Wind_Speed
25 24 25 28 26 28 32 28 28 33 36 29 30 32 33 33 38 41 38 37 37 36 29 29 18 16 16 17 19 14 14 16 16 23 11 12 9 8 11 7 19 25 20 19 24 16 16 8 13 10 9 4 1 3
22 25 29 32 31 30 32 29 29 28 33 32 31 32 32 33 33 36 36 35 33 37 27 26 31 27 28 22 19 17 20 7 13 13 13 9 7 7 9 11 12 17 22 16 18 19 5 5 11 11 14 11 14 18
26 29 29 27 25 23 22 23 27 25 28 32 32 32 34 35 35 35 29 29 33 32 30 31 24 24 26 24 20 26 22 26 16 13 18 14 11 9 11 13 9 15 17 12 13 16 15 10 4 15 15 19 22 25
23 21 21 21 19 19 18 18 18 17 24 29 30 30 31 31 31 30 31 31 33 31 32 22 17 20 15 22 19 23 19 21 15 15 17 16 10 8 9 12 10 11 5 14 13 11 9 5 11 23 22 25 27 27
19 19 18 18 17 16 15 14 13 15 21 26 28 29 30 31 33 32 28 30 30 31 11 15 15 17 19 14 21 20 17 18 16 18 22 16 14 10 14 11 10 10 11 12 9 14 15 9 15 21 22 25 26 29
19 14 15 17 17 14 13 14 15 19 24 25 27 26 24 27 29 28 37 35 34 27 35 22 10 10 19 17 21 18 21 20 22 13 18 23 21 19 8 10 12 16 20 20 18 14 13 19 26 25 23 27 25 26
8 11 12 12 10 13 14 16 14 19 23 26 27 26 24 26 31 38 38 35 33 33 31 26 16 10 14 15 14 17 21 20 20 21 21 16 18 14 19 16 10 14 17 20 22 22 24 20 24 24 28 27 29 32
11 15 15 11 10 12 17 18 19 18 21 27 27 27 29 26 28 30 34 29 33 31 31 8 7 15 17 17 15 15 14 19 21 20 15 17 15 18 15 18 24 28 23 25 21 20 27 28 26 26 27 28 31 31
15 7 7 16 2 12 20 23 23 23 24 24 25 29 31 28 34 23 26 21 22 30 29 18 14 11 19 18 14 12 14 20 18 22 22 21 25 17 13 24 24 24 26 26 23 24 26 29 30 27 29 30 29 26
8 12 8 5 3 15 24 26 26 27 28 31 32 37 34 32 32 23 23 20 22 29 26 21 20 15 13 15 17 15 10 12 8 17 16 22 17 22 28 24 22 21 22 22 24 26 27 30 33 32 31 27 25 24
10 15 14 15 17 22 28 28 31 34 36 35 37 31 31 27 29 23 11 17 12 13 24 19 17 17 13 13 14 13 7 7 7 14 9 6 12 27 30 29 27 28 30 29 27 27 27 26 26 23 24 25 23 22
15 13 17 21 23 28 29 31 33 34 36 32 36 35 35 23 11 6 11 9 9 10 11 24 20 17 15 12 11 11 6 6 6 11 10 7 15 18 21 24 24 22 21 19 17 18 20 20 19 19 20 20 20 20
18 21 24 23 26 30 31 30 30 31 31 37 38 26 17 7 6 8 9 9 7 16 16 18 22 22 15 13 6 6 8 8 5 8 7 12 16 21 23 21 20 20 16 15 14 15 16 14 13 12 14 12 9 8
28 31 25 25 28 30 27 29 29 25 39 18 14 8 6 7 9 11 21 21 15 15 15 13 18 20 22 15 12 5 10 7 7 6 8 16 12 15 18 15 13 12 11 9 8 8 7 4 2 2 2 3 4 4
27 27 30 28 26 31 28 26 27 22 16 11 6 5 8 6 12 12 19 19 16 15 18 16 16 14 21 10 10 6 8 6 9 10 18 12 12 10 8 7 6 5 4 3 3 3 5 7 7 7 8 8 8 7
21 23 24 25 23 20 24 23 14 15 8 4 5 5 10 13 15 18 21 20 18 16 17 15 10 9 8 6 6 6 7 5 9 11 10 9 8 7 7 7 7 8 9 10 10 10 10 10 8 7 5 4 3 3
18 14 13 8 4 7 7 10 19 15 7 6 5 11 12 15 18 19 19 18 20 22 15 5 4 3 6 4 4 5 7 8 7 9 9 9 9 9 11 13 13 13 11 10 8 6 5 3 2 2 4 6 7 8
11 13 14 10 6 7 4 3 6 6 10 13 16 17 17 17 17 17 16 18 21 21 15 7 5 5 5 4 5 8 8 9 9 10 12 13 15 16 15 13 11 9 7 5 3 1 2 5 7 8 9 10 12 13
9 9 11 11 8 4 3 2 4 8 13 14 15 15 16 16 15 14 15 15 15 15 12 6 2 3 3 4 3 7 9 10 13 16 18 18 16 14 11 9 6 4 1 1 4 6 8 10 11 13 14 15 16 17
8 9 9 10 9 4 1 3 5 8 11 12 13 14 14 14 14 15 14 14 13 13 10 6 4 4 4 8 11 13 16 16 16 16 14 12 10 8 5 3 1 3 5 8 10 12 13 15 16 17 18 18 19 19
7 9 10 11 9 2 2 5 3 5 7 9 12 14 14 13 12 11 12 13 13 12 10 12 14 15 17 19 20 19 18 16 13 11 8 6 4 2 1 4 6 9 11 13 14 15 16 17 18 18 18 18 19 19
10 11 10 11 6 1 3 5 7 9 13 11 13 17 18 15 13 10 10 10 14 19 22 21 21 21 20 19 18 16 13 10 8 6 3 1 2 5 7 9 11 12 14 16 18 19 20 20 20 20 20 20 20 19
14 14 13 10 4 4 11 13 12 14 9 18 23 21 20 20 19 17 14 22 27 25 24 22 21 19 16 13 11 9 6 4 3 1 2 4 7 9 11 13 15 16 17 18 18 18 18 19 19 19 19 19 18 16
16 17 12 7 4 6 9 12 21 20 22 23 25 24 21 19 17 24 30 29 27 26 23 20 18 14 11 8 7 4 2 0 3 5 7 9 11 12 13 13 14 15 15 16 16 17 17 17 17 16 16 14 13 13
11 10 6 7 8 11 12 19 22 25 22 18 17 17 18 20 20 24 25 25 23 20 18 15 12 10 8 5 2 0 3 5 7 8 9 10 11 12 13 14 14 15 16 16 16 16 15 14 14 13 12 12 12 13
6 6 8 12 15 14 16 21 20 21 17 13 14 17 21 17 7 10 20 19 17 15 13 10 8 6 3 2 2 4 5 6 7 9 10 11 12 13 14 15 15 15 15 14 14 13 13 12 11 11 12 12 13 13
5 6 13 16 17 20 25 22 26 16 11 12 19 20 10 5 6 15 19 17 15 12 10 8 6 4 3 3 4 6 7 8 9 11 12 12 13 14 14 14 14 14 13 12 12 11 11 12 12 13 13 13 12 13
8 16 18 18 21 24 29 30 21 11 9 18 18 7 5 6 9 21 19 16 13 10 8 6 4 3 3 5 6 7 8 10 11 12 13 13 14 14 14 13 13 12 12 11 12 12 13 13 13 13 13 13 14 14
20 22 22 23 26 30 27 22 12 10 14 18 7 5 5 8 18 19 16 13 10 8 5 3 3 4 6 7 7 8 9 10 11 12 13 13 14 14 14 13 12 12 12 13 13 14 14 14 13 13 14 14 15 16
27 27 29 30 28 23 17 11 11 17 15 7 8 11 16 18 17 15 12 9 6 3 2 3 5 6 7 7 8 9 10 11 12 13 14 14 14 14 13 13 12 12 13 13 14 14 14 14 14 15 15 16 17 18
25 26 24 22 21 17 16 18 19 15 15 17 18 15 14 13 12 9 7 4 2 2 4 5 6 7 8 8 9 10 10 11 12 14 14 15 15 14 14 14 13 14 14 14 14 15 15 15 15 16 17 18 19 20
23 23 20 19 20 20 20 23 22 21 20 17 16 14 12 9 7 6 3 1 2 4 6 7 8 8 9 9 9 10 11 13 14 15 15 15 14 14 14 14 13 14 14 15 15 15 16 16 18 19 19 20 21 21
19 18 17 18 25 26 24 24 22 19 17 15 13 11 8 6 4 2 2 3 4 6 7 8 8 8 8 8 9 11 12 14 14 15 14 14 13 13 13 14 14 15 15 15 16 17 18 18 19 20 20 21 21 21
Wind_Direction
280 271 263 274 279 274 277 261 261 255 250 244 229 221 217 212 208 208 214 222 228 231 234 234 219 236 214 228 230 248 250 248 227 222 237 231 236 231 241 233 189 191 195 212 222 233 241 243 220 226 200 144 218 294
277 275 276 276 273 274 270 265 259 260 238 236 223 212 206 204 206 212 218 218 221 228 237 238 231 228 223 232 236 252 241 244 231 222 223 228 224 227 231 235 191 199 204 202 203 223 204 208 208 209 225 243 280 286
281 279 279 280 277 276 272 262 251 254 228 219 214 208 205 204 204 207 207 208 215 227 241 243 220 226 233 232 225 249 249 245 212 232 231 231 235 232 230 234 232 220 200 228 207 219 196 192 233 261 247 278 286 289
289 291 281 280 278 263 265 269 241 234 215 210 207 203 198 197 198 202 203 203 213 224 235 237 219 233 246 239 238 230 237 231 236 214 229 234 223 223 240 242 251 245 244 234 244 246 220 240 278 274 278 280 281 282
283 295 284 278 268 263 260 247 224 210 199 195 192 192 196 195 200 202 199 204 210 211 236 253 253 242 258 240 227 224 219 223 233 245 237 236 230 260 244 253 243 234 245 239 227 229 226 233 256 261 276 282 286 283
291 299 300 281 263 257 238 224 213 194 181 181 187 190 198 202 196 197 210 211 216 216 229 263 292 242 235 250 216 212 222 223 233 236 234 238 238 263 254 245 235 231 240 237 238 246 241 250 261 271 281 283 286 291
286 324 308 302 264 235 213 202 194 192 188 194 193 191 194 192 189 200 203 210 205 207 216 245 265 201 206 196 204 205 218 232 224 242 238 240 235 248 252 248 271 239 250 256 257 258 264 267 266 280 283 286 282 289
306 310 324 316 256 218 195 184 180 172 174 182 181 179 179 179 187 192 200 192 195 198 210 207 195 197 199 208 213 224 226 224 235 235 238 250 251 249 256 252 258 260 264 269 267 256 272 278 278 279 288 288 290 282
319 337 300 350 319 201 178 178 173 164 159 155 163 167 168 177 174 154 192 203 201 205 203 223 209 198 208 212 214 228 229 230 235 239 253 262 258 243 243 258 266 265 268 271 268 269 272 277 280 281 286 289 289 283
359 5 357 11 137 156 161 160 161 160 153 149 153 158 166 171 179 177 174 168 184 202 211 221 214 217 210 218 218 220 235 227 233 254 255 242 239 232 238 246 263 268 277 275 266 266 277 279 282 282 281 281 284 291
25 46 37 44 121 142 147 147 153 154 158 160 147 160 164 167 167 156 150 174 177 195 211 210 202 210 202 200 202 198 217 216 229 240 234 238 230 241 250 254 259 270 275 273 272 272 278 284 285 286 286 283 281 282
48 58 45 87 121 133 134 138 149 155 159 157 149 150 135 134 149 145 159 158 171 181 193 210 205 205 208 205 190 208 207 217 242 219 211 235 240 253 260 264 269 280 284 280 281 285 289 287 285 294 297 288 279 277
83 79 87 98 127 129 130 137 143 149 145 142 138 142 149 140 148 153 164 171 181 194 213 212 207 211 202 204 214 224 200 223 215 185 217 234 245 251 259 264 272 279 287 292 292 291 286 286 292 293 288 283 271 259
98 86 93 105 112 121 126 136 131 131 138 134 133 122 155 163 180 174 181 190 192 191 188 181 187 197 208 214 223 215 208 182 188 204 227 248 246 247 246 254 267 274 276 281 286 278 276 274 270 242 195 171 131 126
105 95 92 98 114 127 127 138 136 129 140 144 173 190 188 181 179 182 183 184 184 180 177 168 183 185 195 204 198 199 174 185 197 211 233 241 237 238 238 234 232 232 220 200 170 147 128 113 111 115 113 108 104 100
117 114 107 102 102 113 136 145 146 156 179 184 212 176 177 167 168 172 177 179 180 176 174 181 184 197 184 180 172 174 168 192 232 238 238 226 221 209 195 184 172 153 137 130 127 123 119 111 104 97 87 74 47 3
163 152 143 147 127 150 125 121 156 168 205 233 194 168 164 158 159 165 171 172 172 174 178 163 168 165 148 188 200 200 205 231 219 204 191 179 171 163 154 144 138 134 130 130 128 120 105 87 52 350 334 330 323 314
150 166 189 191 178 154 128 228 202 195 192 161 150 150 150 154 157 161 167 174 176 178 182 188 183 179 165 162 214 214 220 208 184 167 159 151 146 144 142 141 139 138 139 137 126 80 332 327 328 321 313 307 303 300
170 159 163 171 164 168 209 155 160 137 141 143 146 151 157 162 163 162 167 170 174 183 193 186 205 191 201 208 213 177 164 155 149 147 146 144 145 144 144 144 146 147 151 318 321 319 315 310 307 304 301 299 297 296
155 169 174 176 173 184 210 127 135 132 154 156 162 163 161 161 166 172 175 181 184 190 200 212 213 168 153 147 136 136 137 137 141 142 143 143 144 143 141 145 220 302 306 306 306 305 303 300 298 296 294 292 292 292
155 159 164 169 179 225 191 163 152 144 149 171 166 163 167 164 159 163 173 181 190 196 155 146 138 137 134 132 132 134 135 136 137 138 137 136 139 162 255 290 299 300 299 298 296 296 296 297 297 297 297 298 299 300
180 169 161 167 171 155 81 119 114 117 114 123 149 159 149 148 153 152 156 171 153 141 140 135 134 132 133 133 134 135 137 138 140 138 147 188 270 291 294 295 297 300 302 303 303 303 301 300 300 301 301 302 302 302
172 168 164 158 146 83 114 98 92 98 105 108 119 122 129 131 134 133 126 128 127 127 127 129 129 129 131 133 131 129 127 131 144 198 275 292 301 305 306 304 302 300 297 295 295 296 298 300 301 301 301 301 301 301
162 159 158 156 161 134 132 120 121 109 109 108 111 113 121 128 135 131 126 129 132 131 133 134 134 135 136 137 132 131 136 250 306 311 311 308 303 300 298 299 299 300 301 301 301 302 302 302 301 301 301 301 301 299
150 152 153 155 142 148 137 141 134 123 120 116 108 110 118 123 121 127 135 138 138 139 141 143 142 143 145 149 146 351 316 306 300 298 301 306 310 312 312 312 311 310 309 308 307 306 305 304 303 303 302 301 300 300
166 161 167 170 152 146 144 151 148 132 121 107 119 122 129 123 114 145 152 151 151 150 149 151 153 154 169 217 272 292 302 310 315 317 318 319 320 320 320 319 315 311 309 308 307 306 305 304 304 304 303 302 301 300
193 175 172 167 165 160 155 156 149 137 126 132 143 144 145 141 142 165 166 165 162 162 164 169 182 198 226 277 304 314 318 319 321 323 325 324 322 321 318 315 314 312 310 309 308 308 308 306 304 303 302 301 301 300
181 153 155 153 152 155 152 152 151 146 145 157 157 176 187 192 184 173 169 169 171 174 182 191 203 241 291 307 313 318 321 323 322 322 323 322 322 319 316 314 311 310 309 309 308 308 307 305 304 303 302 303 303 303
143 140 141 145 145 147 151 156 158 158 157 158 174 187 176 155 152 158 162 168 174 181 189 216 267 296 306 311 314 316 318 321 325 327 327 326 323 320 316 312 310 308 308 308 308 308 309 307 305 304 304 304 304 305
135 138 141 145 148 150 152 160 156 151 151 149 138 136 133 139 144 150 157 162 168 178 233 277 292 300 306 311 314 318 323 327 329 329 330 328 326 323 320 316 312 311 311 310 309 310 310 309 309 309 309 308 308 309
144 147 153 154 153 146 145 141 144 143 136 129 123 121 123 127 132 138 147 156 193 257 280 290 297 306 311 314 318 321 324 327 328 327 326 324 322 321 319 317 315 314 313 312 313 313 313 311 311 310 310 310 310 310
158 161 163 163 152 150 150 143 141 139 133 131 130 130 128 129 136 144 151 228 262 279 293 302 307 309 311 313 317 322 324 325 325 325 325 325 323 321 320 319 318 317 316 316 316 316 315 314 313 313 312 312 313 312
162 162 167 161 148 147 147 141 137 132 135 136 139 138 137 137 149 180 251 275 284 294 300 301 301 303 307 313 318 321 323 323 322 323 323 324 324 324 323 322 320 320 320 320 319 318 317 316 315 315 315 315 315 315
Height
2883 2882 2882 2882 2881 2881 2880 2880 2881 2883 2886 2891 2895 2900 2907 2913 2920 2926 2934 2939 2943 2947 2950 2953 2956 2958 2962 2964 2967 2969 2971 2969 2972 2974 2975 2974 2973 2973 2972 2972 2973 2978 2983 2986 2991 2990 2990 2989 2990 2992 2990 2990 2991 2992
2874 2874 2873 2872 2871 2870 2869 2869 2870 2871 2875 2881 2886 2893 2900 2907 2914 2922 2927 2934 2939 2941 2944 2946 2948 2952 2955 2959 2962 2963 2965 2965 2968 2969 2971 2970 2971 2970 2971 2971 2971 2976 2977 2980 2983 2984 2985 2986 2985 2984 2984 2987 2986 2986
2867 2865 2862 2861 2859 2858 2858 2858 2860 2861 2864 2871 2878 2885 2893 2901 2909 2915 2923 2931 2934 2937 2940 2940 2942 2949 2951 2953 2957 2958 2960 2960 2963 2966 2966 2967 2968 2969 2970 2969 2970 2972 2972 2975 2977 2979 2977 2983 2980 2980 2982 2983 2983 2982
2858 2856 2854 2853 2852 2851 2852 2851 2852 2853 2858 2865 2872 2880 2888 2896 2904 2911 2917 2925 2930 2936 2937 2935 2939 2940 2945 2946 2949 2952 2956 2957 2959 2961 2962 2964 2966 2967 2966 2967 2968 2970 2970 2973 2975 2976 2979 2981 2977 2974 2977 2977 2977 2976
2852 2850 2848 2847 2846 2845 2846 2847 2848 2851 2855 2861 2868 2876 2884 2892 2900 2907 2915 2920 2926 2934 2931 2933 2936 2937 2938 2941 2944 2947 2950 2954 2956 2958 2958 2961 2963 2964 2964 2965 2965 2969 2970 2970 2972 2971 2974 2975 2971 2972 2975 2973 2973 2972
2847 2845 2842 2840 2839 2839 2840 2843 2845 2849 2854 2860 2867 2874 2881 2888 2896 2904 2910 2913 2920 2928 2930 2930 2931 2932 2934 2937 2940 2943 2947 2950 2952 2952 2956 2957 2960 2963 2961 2962 2964 2963 2963 2965 2965 2968 2970 2971 2968 2971 2971 2969 2968 2965
2843 2840 2836 2833 2831 2833 2835 2839 2843 2846 2852 2858 2865 2872 2879 2886 2892 2897 2901 2908 2917 2926 2929 2932 2931 2931 2932 2935 2937 2941 2944 2947 2949 2950 2951 2954 2958 2958 2957 2959 2956 2959 2961 2963 2965 2966 2966 2968 2965 2966 2965 2964 2961 2959
2838 2835 2831 2826 2825 2827 2831 2836 2841 2846 2850 2856 2863 2871 2879 2885 2893 2899 2905 2912 2917 2922 2927 2928 2928 2931 2932 2934 2936 2939 2941 2944 2944 2945 2948 2951 2954 2954 2952 2953 2954 2954 2957 2957 2960 2960 2959 2959 2960 2959 2958 2957 2954 2951
2834 2832 2828 2825 2821 2821 2827 2834 2841 2846 2851 2857 2863 2871 2878 2885 2893 2898 2903 2910 2915 2921 2922 2925 2927 2929 2931 2933 2935 2937 2938 2940 2940 2942 2945 2948 2948 2947 2947 2948 2949 2951 2952 2951 2952 2952 2952 2951 2951 2951 2950 2948 2945 2943
2833 2829 2825 2822 2820 2821 2827 2834 2841 2847 2854 2859 2865 2872 2880 2885 2892 2900 2906 2909 2914 2916 2919 2920 2924 2926 2929 2930 2932 2936 2936 2937 2937 2939 2940 2940 2938 2940 2943 2945 2945 2946 2946 2946 2946 2945 2946 2944 2943 2943 2941 2939 2937 2936
2834 2830 2826 2820 2820 2824 2830 2836 2842 2849 2855 2862 2869 2875 2882 2888 2895 2901 2905 2909 2911 2914 2915 2918 2921 2923 2927 2929 2930 2933 2933 2935 2936 2937 2938 2936 2933 2937 2938 2939 2940 2941 2940 2940 2940 2939 2939 2937 2934 2933 2932 2931 2930 2929
2837 2834 2830 2827 2829 2832 2837 2842 2848 2854 2860 2864 2869 2878 2884 2891 2896 2900 2902 2905 2907 2911 2911 2915 2919 2921 2924 2927 2928 2931 2932 2933 2932 2932 2934 2932 2931 2932 2932 2932 2933 2933 2933 2932 2931 2931 2930 2930 2928 2926 2924 2924 2923 2922
2843 2841 2838 2837 2837 2841 2846 2851 2856 2863 2867 2872 2877 2884 2888 2892 2895 2897 2899 2902 2903 2905 2908 2910 2914 2918 2924 2926 2928 2929 2929 2929 2929 2930 2928 2926 2928 2928 2929 2928 2928 2929 2927 2927 2926 2926 2925 2924 2922 2921 2921 2920 2920 2919
2850 2849 2848 2848 2849 2853 2856 2860 2864 2869 2873 2879 2882 2885 2887 2889 2891 2892 2894 2897 2902 2904 2907 2909 2913 2917 2920 2924 2925 2923 2924 2925 2926 2926 2924 2922 2924 2924 2924 2924 2925 2925 2925 2924 2924 2923 2922 2922 2921 2921 2920 2920 2920 2920
2857 2858 2858 2859 2860 2862 2866 2870 2873 2876 2879 2882 2884 2885 2886 2887 2889 2891 2896 2899 2902 2905 2908 2911 2914 2917 2918 2920 2920 2920 2920 2921 2920 2919 2917 2918 2919 2920 2921 2922 2923 2923 2924 2924 2924 2924 2923 2923 2923 2923 2922 2922 2922 2922
2863 2864 2865 2867 2869 2871 2873 2875 2878 2880 2881 2883 2883 2883 2885 2888 2889 2892 2894 2898 2902 2905 2908 2911 2912 2913 2913 2914 2915 2915 2917 2917 2915 2915 2915 2916 2917 2918 2920 2921 2922 2923 2923 2924 2925 2925 2926 2925 2925 2925 2925 2924 2924 2923
2867 2868 2869 2871 2872 2873 2874 2877 2880 2881 2882 2881 2880 2882 2884 2886 2889 2892 2895 2898 2901 2905 2907 2908 2909 2909 2911 2912 2912 2912 2912 2912 2912 2913 2914 2916 2917 2919 2921 2922 2923 2924 2925 2926 2927 2927 2927 2927 2927 2926 2926 2925 2924 2923
2868 2869 2871 2873 2874 2874 2875 2877 2878 2878 2878 2879 2881 2883 2886 2888 2890 2893 2895 2898 2901 2903 2906 2907 2908 2908 2909 2910 2910 2910 2911 2911 2912 2914 2916 2918 2920 2921 2923 2925 2926 2927 2928 2928 2928 2928 2928 2927 2926 2926 2924 2923 2922 2920
2868 2870 2872 2873 2874 2876 2877 2877 2877 2877 2879 2881 2883 2884 2886 2888 2891 2894 2896 2898 2901 2904 2907 2907 2907 2907 2908 2908 2908 2909 2910 2913 2914 2916 2919 2921 2923 2925 2926 2927 2928 2929 2929 2929 2928 2927 2927 2926 2924 2923 2921 2920 2918 2916
2869 2871 2872 2874 2876 2877 2876 2876 2877 2877 2879 2881 2883 2886 2888 2890 2892 2894 2897 2899 2901 2904 2905 2906 2906 2906 2907 2908 2910 2912 2914 2917 2919 2921 2923 2924 2926 2928 2928 2929 2929 2929 2928 2927 2926 2925 2924 2923 2921 2919 2917 2915 2913 2911
2870 2872 2873 2875 2876 2877 2876 2876 2876 2876 2877 2879 2882 2885 2887 2890 2892 2894 2897 2898 2901 2902 2903 2905 2907 2908 2910 2912 2914 2917 2919 2921 2924 2926 2927 2928 2929 2929 2929 2929 2928 2927 2926 2925 2924 2922 2920 2918 2916 2914 2911 2909 2907 2905
2871 2873 2874 2876 2877 2877 2877 2876 2876 2875 2877 2877 2881 2884 2887 2891 2893 2896 2897 2899 2900 2903 2905 2908 2911 2913 2916 2918 2920 2923 2924 2926 2927 2928 2929 2929 2929 2929 2928 2927 2926 2924 2922 2920 2918 2916 2914 2912 2910 2908 2906 2904 2902 2900
2871 2873 2876 2877 2878 2878 2881 2879 2879 2880 2883 2884 2885 2887 2890 2893 2895 2898 2900 2902 2904 2908 2911 2914 2917 2919 2922 2924 2925 2927 2928 2928 2929 2929 2928 2928 2927 2926 2924 2923 2921 2920 2918 2916 2914 2911 2909 2907 2905 2903 2900 2898 2897 2895
2872 2875 2877 2879 2879 2879 2882 2883 2885 2885 2887 2889 2890 2892 2895 2896 2899 2901 2904 2908 2911 2913 2916 2919 2921 2924 2926 2927 2928 2928 2929 2929 2928 2927 2926 2925 2924 2923 2921 2919 2917 2915 2913 2910 2908 2906 2904 2902 2900 2898 2896 2895 2893 2892
2876 2878 2879 2878 2879 2882 2884 2887 2889 2890 2892 2895 2896 2898 2901 2903 2905 2908 2911 2914 2916 2918 2921 2923 2924 2926 2927 2928 2928 2928 2928 2927 2927 2926 2924 2923 2921 2919 2917 2915 2912 2910 2908 2906 2904 2901 2900 2898 2896 2895 2893 2892 2890 2889
2874 2875 2877 2876 2879 2883 2885 2889 2892 2894 2896 2898 2901 2903 2906 2908 2911 2914 2916 2917 2919 2921 2923 2925 2926 2927 2927 2928 2928 2927 2926 2925 2924 2923 2921 2919 2917 2915 2913 2911 2909 2907 2904 2902 2900 2898 2896 2895 2893 2891 2890 2889 2887 2886
2872 2872 2873 2875 2877 2880 2885 2889 2894 2897 2899 2901 2903 2906 2908 2909 2911 2914 2916 2918 2921 2923 2924 2925 2926 2926 2927 2926 2926 2925 2924 2922 2921 2920 2918 2916 2914 2912 2910 2907 2905 2903 2901 2899 2897 2895 2894 2892 2890 2889 2887 2886 2884 2883
2869 2871 2874 2877 2880 2884 2886 2892 2896 2899 2900 2902 2906 2906 2907 2908 2909 2912 2916 2919 2922 2923 2924 2925 2925 2925 2925 2924 2923 2922 2921 2920 2918 2917 2915 2913 2910 2908 2906 2904 2902 2900 2898 2896 2895 2893 2891 2889 2887 2885 2884 2882 2881 2879
2871 2873 2878 2880 2884 2889 2892 2895 2897 2899 2901 2904 2906 2906 2907 2907 2911 2914 2917 2920 2921 2922 2923 2924 2924 2923 2923 2922 2921 2920 2919 2917 2916 2914 2912 2909 2907 2905 2903 2901 2899 2897 2895 2893 2892 2890 2888 2886 2884 2882 2880 2879 2877 2874
2876 2878 2881 2885 2888 2891 2895 2897 2898 2901 2903 2905 2906 2907 2908 2911 2913 2916 2918 2920 2921 2922 2922 2922 2922 2921 2920 2919 2918 2917 2916 2914 2913 2911 2909 2906 2904 2902 2900 2898 2896 2894 2892 2890 2888 2886 2884 2882 2880 2878 2876 2874 2872 2870
2880 2884 2887 2889 2892 2894 2897 2899 2901 2903 2905 2907 2908 2911 2912 2914 2916 2917 2919 2920 2921 2921 2921 2920 2920 2919 2918 2917 2916 2914 2913 2912 2910 2908 2906 2903 2901 2899 2896 2894 2892 2890 2888 2886 2884 2882 2880 2878 2876 2874 2872 2870 2867 2865
2884 2886 2890 2891 2893 2896 2898 2901 2903 2905 2907 2910 2911 2913 2915 2916 2917 2919 2919 2919 2919 2919 2919 2918 2917 2916 2915 2914 2913 2912 2910 2908 2906 2904 2902 2900 2898 2895 2893 2891 2889 2887 2885 2883 2881 2879 2877 2875 2872 2870 2867 2865 2862 2859
2886 2889 2892 2893 2895 2898 2901 2903 2906 2908 2910 2912 2913 2915 2916 2917 2918 2919 2919 2918 2919 2918 2917 2916 2915 2914 2913 2912 2911 2909 2908 2906 2903 2901 2899 2897 2895 2893 2891 2888 2886 2884 2882 2880 2878 2875 2873 2870 2868 2865 2862 2859 2856 2853